Flag Weather past 2 weeks in Saguenay, Quebec, Canada

Now
43 °F

Quite cool.


Feels Like: 35 °F
Forecast: 33 / 42 °F
Wind: 15 mph from Northwest

Location: Jonquiere Airport

Current Time: Oct 30, 2014 at 1:45:47 PM

Latest Report: Oct 30, 2014 at 1:00 PM


Visibility: N/A

Pressure: 29.90 "Hg

Humidity: 69%

Dew point: 33 °F

Location of SaguenayLocation

Historic Weather in Saguenay — Graph

°F

Saguenay temperature yesterday

Maximum temperature yesterday: 51 °F (at 11:00 AM)
Minimum temperature yesterday: 42 °F (at 12:00 AM)
Average temperature yesterday: 47 °F

Past Weeks' High & Low Weather Summary

 TemperatureHumidityPressure
High60 °F (Oct 18, 1:00 PM)100% (Oct 17, 12:00 PM)30.53 "Hg (Oct 17, 12:00 PM)
Low27 °F (Oct 22, 7:00 AM)28% (Oct 24, 4:00 PM)29.36 "Hg (Oct 17, 4:00 PM)
Average42 °F82%29.86 "Hg
* Reported Oct 15 12:00 Noon — Oct 30 12:00 Noon, Saguenay, Weather by CustomWeather, © 2014

Note: Actual official high and low records may vary slightly from our data, if they occured in-between our weather recording intervals... More about our weather records

Advertising

Saguenay weather history for previous 24 hours

 ConditionsComfort  
Time TempWeatherWind HumidityBarometerVisibility
12:00 PM
Oct 30
42 °FQuite cool.15 mph70%29.90 "HgN/A
11:00 AM42 °FQuite cool.12 mph75%29.89 "HgN/A
9:00 AM40 °FQuite cool.10 mph79%29.88 "HgN/A
8:00 AM39 °FChilly.10 mph83%29.86 "HgN/A
7:00 AM39 °FChilly.10 mph85%29.84 "HgN/A
6:00 AM40 °FChilly.12 mph82%29.82 "HgN/A
5:00 AM40 °FQuite cool.12 mph79%29.80 "HgN/A
4:00 AM40 °FQuite cool.13 mph79%29.78 "HgN/A
3:00 AM41 °FQuite cool.10 mph79%29.76 "HgN/A
2:00 AM41 °FQuite cool.9 mph81%29.74 "HgN/A
1:00 AM42 °FQuite cool.12 mph83%29.72 "HgN/A
12:00 AM43 °FQuite cool.13 mph85%29.70 "HgN/A
11:00 PM
Oct 29
46 °FCool.13 mph78%29.68 "HgN/A
10:00 PM47 °FCool.13 mph79%29.67 "HgN/A
9:00 PM46 °FCool.13 mph86%29.67 "HgN/A
8:00 PM47 °FCool.10 mph80%29.67 "HgN/A
7:00 PM49 °FCool.12 mph78%29.67 "HgN/A
6:00 PM49 °FCool.9 mph82%29.65 "HgN/A
5:00 PM48 °FCool.8 mph92%29.65 "HgN/A
4:00 PM50 °FCool.7 mph90%29.65 "HgN/A
3:00 PM50 °FCool.3 mph89%29.63 "HgN/A
2:00 PM50 °FCool.3 mph87%29.66 "HgN/A
1:00 PM50 °FCool.3 mph89%29.67 "HgN/A
Weather by CustomWeather, © 2014

See weather overviewHow to use our weather pages